Precipitable_Water
0.57 0.61 0.65 0.72 0.79 0.89 0.94 0.97 1.01 1.07 1.15 1.20 1.14 1.16 1.18 1.27 1.31 1.37 1.42 1.43 1.45 1.44 1.43 1.42 1.44 1.34 1.18 1.05 0.97 0.84 0.76 0.70 0.75 0.66 0.66 0.68 0.72 0.74 0.78 0.81 0.82 0.82 0.83
0.52 0.55 0.57 0.61 0.64 0.68 0.74 0.78 0.85 0.95 0.99 1.07 1.15 1.16 1.16 1.22 1.28 1.36 1.39 1.43 1.44 1.45 1.42 1.45 1.43 1.39 1.25 1.15 1.07 0.98 0.86 0.80 0.78 0.63 0.60 0.53 0.59 0.67 0.73 0.77 0.79 0.80 0.78
0.48 0.50 0.50 0.54 0.55 0.56 0.61 0.63 0.69 0.80 0.90 0.95 1.08 1.08 1.12 1.10 1.10 1.17 1.21 1.29 1.37 1.40 1.41 1.41 1.43 1.39 1.31 1.19 1.16 1.11 1.00 0.85 0.83 0.75 0.61 0.54 0.49 0.59 0.69 0.73 0.74 0.75 0.70
0.52 0.52 0.51 0.51 0.52 0.54 0.57 0.57 0.59 0.60 0.67 0.85 0.91 0.93 0.85 0.81 0.89 0.96 1.05 1.14 1.27 1.29 1.31 1.37 1.41 1.39 1.34 1.27 1.21 1.18 1.12 1.02 0.89 0.85 0.76 0.73 0.66 0.55 0.52 0.68 0.72 0.74 0.70
0.54 0.52 0.51 0.52 0.52 0.55 0.56 0.56 0.55 0.53 0.54 0.57 0.67 0.73 0.77 0.86 0.90 0.91 0.96 0.99 1.06 1.13 1.29 1.29 1.32 1.36 1.33 1.30 1.25 1.20 1.17 1.14 1.03 0.95 0.86 0.80 0.73 0.70 0.60 0.55 0.62 0.71 0.72
0.56 0.52 0.51 0.51 0.50 0.51 0.52 0.53 0.52 0.51 0.52 0.52 0.53 0.55 0.57 0.61 0.62 0.65 0.76 0.86 0.91 0.95 1.04 1.15 1.26 1.29 1.31 1.29 1.31 1.26 1.21 1.18 1.14 1.07 1.00 0.87 0.76 0.72 0.68 0.63 0.63 0.61 0.66
0.49 0.47 0.46 0.46 0.46 0.47 0.49 0.49 0.49 0.48 0.52 0.52 0.51 0.51 0.51 0.53 0.54 0.58 0.62 0.66 0.74 0.78 0.82 0.94 1.00 1.07 1.22 1.28 1.29 1.26 1.23 1.20 1.11 1.09 1.05 1.00 0.91 0.87 0.82 0.73 0.66 0.61 0.64
0.47 0.46 0.46 0.47 0.46 0.46 0.46 0.46 0.44 0.43 0.44 0.46 0.48 0.52 0.53 0.51 0.50 0.51 0.55 0.59 0.63 0.71 0.80 0.83 0.88 0.95 1.02 1.08 1.17 1.19 1.20 1.20 1.12 1.04 1.01 0.95 0.95 0.92 0.85 0.77 0.70 0.62 0.64
0.46 0.46 0.46 0.45 0.44 0.43 0.44 0.45 0.46 0.46 0.45 0.44 0.47 0.46 0.48 0.51 0.51 0.52 0.55 0.56 0.59 0.63 0.65 0.70 0.78 0.82 0.90 0.93 0.94 1.01 1.04 1.05 1.07 0.99 0.95 0.89 0.87 0.86 0.85 0.84 0.82 0.77 0.66
0.44 0.44 0.44 0.44 0.44 0.44 0.43 0.45 0.44 0.41 0.41 0.43 0.45 0.43 0.41 0.44 0.50 0.52 0.50 0.51 0.53 0.57 0.59 0.63 0.66 0.71 0.74 0.82 0.86 0.91 0.94 0.98 0.98 0.98 0.94 0.91 0.88 0.85 0.88 0.90 0.94 0.88 0.80
0.43 0.44 0.45 0.45 0.45 0.44 0.41 0.39 0.36 0.35 0.34 0.38 0.41 0.42 0.41 0.41 0.44 0.49 0.51 0.52 0.54 0.54 0.54 0.57 0.60 0.65 0.70 0.75 0.80 0.85 0.90 0.92 0.93 0.96 0.95 0.92 0.91 0.92 0.95 0.95 0.93 0.87 0.82
0.45 0.46 0.46 0.43 0.41 0.38 0.35 0.34 0.35 0.35 0.37 0.40 0.42 0.43 0.44 0.44 0.43 0.46 0.51 0.54 0.53 0.56 0.56 0.57 0.59 0.62 0.65 0.73 0.74 0.84 0.87 0.88 0.90 0.95 0.94 0.91 0.91 0.89 0.93 0.86 0.83 0.79 0.78
0.43 0.42 0.41 0.38 0.35 0.35 0.35 0.36 0.38 0.40 0.41 0.45 0.46 0.44 0.46 0.45 0.45 0.48 0.53 0.55 0.56 0.57 0.59 0.61 0.61 0.62 0.66 0.69 0.77 0.76 0.81 0.85 0.89 0.92 0.94 0.91 0.87 0.83 0.83 0.83 0.81 0.81 0.80
0.39 0.37 0.36 0.36 0.37 0.36 0.36 0.37 0.39 0.42 0.45 0.47 0.46 0.47 0.50 0.48 0.50 0.54 0.55 0.57 0.58 0.59 0.60 0.63 0.63 0.64 0.65 0.70 0.72 0.71 0.79 0.83 0.84 0.86 0.87 0.85 0.82 0.81 0.80 0.79 0.78 0.78 0.75
0.36 0.35 0.35 0.35 0.34 0.34 0.35 0.37 0.39 0.44 0.48 0.46 0.47 0.50 0.52 0.54 0.54 0.56 0.58 0.60 0.61 0.61 0.62 0.62 0.65 0.64 0.64 0.67 0.66 0.64 0.73 0.73 0.77 0.78 0.79 0.79 0.78 0.77 0.76 0.74 0.73 0.72 0.70
0.34 0.35 0.33 0.32 0.32 0.34 0.35 0.38 0.41 0.43 0.48 0.47 0.48 0.51 0.54 0.55 0.55 0.57 0.59 0.60 0.62 0.64 0.64 0.64 0.63 0.62 0.63 0.62 0.66 0.66 0.63 0.68 0.69 0.70 0.69 0.71 0.71 0.71 0.71 0.71 0.71 0.70 0.65
0.34 0.31 0.30 0.30 0.31 0.32 0.37 0.39 0.43 0.46 0.48 0.49 0.51 0.53 0.55 0.56 0.58 0.59 0.59 0.60 0.61 0.63 0.62 0.63 0.63 0.60 0.61 0.63 0.62 0.63 0.64 0.64 0.63 0.64 0.64 0.63 0.64 0.65 0.65 0.64 0.65 0.64 0.64
0.30 0.29 0.30 0.31 0.31 0.33 0.35 0.43 0.47 0.46 0.48 0.52 0.55 0.58 0.58 0.58 0.60 0.60 0.60 0.57 0.57 0.55 0.54 0.56 0.58 0.58 0.61 0.62 0.62 0.61 0.60 0.60 0.59 0.60 0.61 0.61 0.59 0.59 0.58 0.56 0.55 0.54 0.54
0.29 0.29 0.30 0.30 0.31 0.32 0.36 0.41 0.46 0.48 0.49 0.52 0.57 0.60 0.61 0.60 0.61 0.58 0.53 0.50 0.46 0.45 0.46 0.49 0.50 0.51 0.55 0.57 0.60 0.60 0.58 0.56 0.55 0.56 0.57 0.57 0.55 0.55 0.54 0.51 0.49 0.48 0.48
0.28 0.28 0.29 0.30 0.29 0.31 0.35 0.39 0.45 0.49 0.49 0.56 0.62 0.65 0.63 0.62 0.55 0.51 0.46 0.44 0.42 0.42 0.43 0.42 0.44 0.44 0.44 0.47 0.50 0.53 0.52 0.51 0.51 0.51 0.51 0.52 0.51 0.49 0.47 0.45 0.43 0.41 0.40
0.30 0.32 0.31 0.31 0.30 0.31 0.33 0.35 0.43 0.50 0.58 0.63 0.65 0.64 0.63 0.57 0.51 0.45 0.42 0.40 0.40 0.41 0.40 0.41 0.43 0.43 0.44 0.43 0.44 0.45 0.46 0.47 0.46 0.46 0.47 0.48 0.45 0.43 0.41 0.38 0.36 0.33 0.33
0.32 0.33 0.32 0.32 0.34 0.33 0.32 0.32 0.40 0.54 0.60 0.64 0.62 0.61 0.56 0.50 0.46 0.41 0.40 0.39 0.40 0.40 0.40 0.39 0.39 0.42 0.44 0.44 0.44 0.43 0.43 0.43 0.42 0.42 0.43 0.41 0.38 0.36 0.34 0.35 0.33 0.31 0.31
0.32 0.34 0.34 0.35 0.36 0.37 0.34 0.32 0.36 0.51 0.57 0.58 0.57 0.54 0.50 0.45 0.42 0.39 0.37 0.38 0.40 0.39 0.39 0.39 0.39 0.40 0.43 0.43 0.44 0.44 0.43 0.45 0.43 0.43 0.40 0.37 0.35 0.33 0.32 0.30 0.30 0.30 0.31
0.31 0.33 0.33 0.33 0.33 0.38 0.39 0.38 0.41 0.42 0.53 0.49 0.47 0.43 0.39 0.38 0.38 0.38 0.39 0.39 0.38 0.38 0.38 0.37 0.38 0.40 0.41 0.42 0.43 0.43 0.42 0.41 0.40 0.38 0.38 0.38 0.36 0.34 0.31 0.30 0.29 0.31 0.30
0.28 0.30 0.30 0.31 0.33 0.36 0.38 0.40 0.42 0.44 0.41 0.43 0.39 0.37 0.36 0.35 0.34 0.37 0.38 0.38 0.40 0.40 0.38 0.38 0.39 0.39 0.39 0.41 0.43 0.42 0.41 0.41 0.38 0.38 0.36 0.34 0.33 0.32 0.30 0.30 0.31 0.31 0.29
0.30 0.31 0.31 0.32 0.33 0.36 0.38 0.39 0.42 0.46 0.36 0.37 0.33 0.33 0.35 0.36 0.35 0.34 0.35 0.39 0.40 0.40 0.42 0.42 0.42 0.43 0.44 0.44 0.44 0.43 0.42 0.41 0.39 0.38 0.36 0.35 0.34 0.31 0.31 0.30 0.29 0.29 0.28
Wind_Speed
14 13 13 12 12 12 13 15 17 19 20 21 23 25 26 27 28 29 30 31 31 32 33 33 34 33 33 33 32 31 31 30 29 27 26 26 26 25 25 25 24 24 24
15 14 13 13 14 14 15 15 17 19 21 23 24 25 26 28 30 31 33 34 35 36 36 36 36 36 35 35 34 34 33 33 32 31 30 29 29 29 28 28 27 27 27
16 15 15 15 15 15 16 17 18 19 21 22 24 26 28 30 31 33 34 36 37 38 39 40 40 40 39 38 38 38 37 35 36 36 33 31 32 31 32 32 31 30 30
17 17 16 16 16 17 18 19 20 21 22 23 26 28 29 30 32 33 35 37 39 40 41 41 43 44 43 43 42 41 41 40 39 39 40 37 34 33 32 35 35 34 34
18 17 17 18 19 20 21 22 23 24 25 26 27 29 31 33 34 34 36 37 38 39 41 43 44 46 47 47 47 46 45 45 43 42 41 40 39 38 36 36 36 38 37
19 19 20 22 22 22 24 26 27 28 29 30 31 33 34 36 38 38 38 38 39 40 42 43 44 46 48 49 50 50 49 48 48 47 45 45 43 41 40 39 39 39 39
21 22 22 23 24 25 27 28 30 32 33 34 36 37 38 39 41 41 42 42 42 42 43 44 46 47 49 50 52 53 53 53 52 51 50 50 48 45 45 42 41 40 41
22 23 24 25 27 29 31 32 35 37 38 39 40 41 41 42 42 42 43 44 45 45 45 46 47 48 50 52 53 54 56 56 56 56 54 52 51 49 48 46 43 41 42
24 25 26 27 29 31 33 35 37 38 40 41 42 42 42 42 42 43 44 45 46 47 48 49 50 50 51 52 54 55 56 57 57 57 56 54 52 51 51 48 48 44 43
25 27 28 30 32 34 35 36 38 40 42 42 42 43 43 43 43 44 44 45 46 48 49 50 51 52 53 53 53 54 56 56 57 57 57 57 54 52 51 50 48 47 44
27 29 31 32 34 35 38 40 41 42 42 42 43 44 44 45 45 45 46 47 48 50 52 53 54 55 56 56 56 56 55 56 57 57 56 55 54 52 51 49 48 47 45
29 30 32 35 37 39 39 40 41 42 43 44 44 45 45 45 45 46 47 49 50 51 53 54 56 57 57 57 57 56 55 55 55 55 55 53 53 54 52 52 52 49 47
30 32 35 36 37 38 39 40 42 43 44 45 45 45 45 44 45 46 47 48 50 51 52 52 53 54 55 55 54 56 56 53 51 49 48 50 50 51 50 48 46 45 45
33 34 35 36 37 38 39 41 43 44 45 46 45 44 44 43 43 44 45 45 46 46 47 45 44 43 45 46 48 48 44 46 46 43 39 37 36 36 36 36 38 39 38
33 34 35 36 37 39 41 43 44 45 45 45 43 42 41 41 40 41 41 40 39 38 34 29 27 27 28 30 32 37 34 33 35 35 33 31 31 31 34 36 36 36 35
33 33 35 37 38 40 42 43 44 44 43 42 40 39 39 38 37 36 34 32 27 21 19 17 17 18 18 20 21 24 27 31 29 28 29 31 30 31 30 30 30 30 29
32 34 35 37 39 40 42 42 43 42 40 38 37 36 34 33 31 29 24 19 15 14 13 11 10 10 9 9 10 14 17 19 22 24 23 26 27 26 25 24 25 25 25
32 33 35 37 38 40 41 41 40 40 38 36 34 32 29 26 23 18 14 11 11 11 10 8 9 8 7 5 4 8 11 12 14 18 19 17 20 21 21 21 21 21 21
33 34 35 37 38 39 40 39 39 37 35 33 30 26 21 17 14 11 10 10 9 9 9 8 7 7 7 6 5 5 7 9 12 13 14 15 16 17 17 19 19 19 19
33 34 36 36 37 37 37 37 36 34 31 27 22 17 15 14 12 10 9 8 8 7 7 7 7 7 7 6 5 6 7 9 10 11 13 15 16 17 17 18 18 18 18
35 36 36 36 35 35 35 34 32 28 24 19 17 17 15 13 12 11 9 8 6 6 7 7 8 9 9 9 9 8 9 10 11 12 13 13 14 14 15 16 16 16 17
36 37 37 36 35 33 32 29 27 24 20 19 17 17 15 14 13 12 9 9 8 7 7 8 9 10 10 11 11 11 11 12 12 12 13 13 14 14 15 14 14 15 15
35 36 36 35 34 32 28 25 22 19 20 18 18 16 16 15 14 13 11 9 9 9 9 9 10 12 12 11 11 12 12 12 12 13 13 13 13 13 13 14 15 15 15
35 35 35 34 32 30 26 24 20 17 17 20 19 19 17 16 15 14 12 11 10 10 10 10 11 11 11 11 11 11 12 12 12 11 12 13 13 13 14 14 15 15 15
32 33 32 31 29 27 27 25 22 19 17 18 19 20 19 17 16 15 14 13 11 11 11 12 12 12 12 11 10 11 11 11 12 12 11 13 14 14 15 15 15 16 15
29 28 27 26 27 27 27 26 24 23 19 18 21 21 20 19 17 15 14 13 13 13 12 12 12 12 12 11 10 9 10 10 11 11 11 11 12 12 13 13 13 13 12
Wind_Direction
257 259 259 257 256 255 257 259 261 264 264 260 258 259 260 260 261 260 260 260 260 259 258 257 257 256 256 255 254 253 252 250 249 248 250 252 253 252 252 252 252 253 253
251 254 255 256 257 258 262 266 269 271 271 265 263 264 264 264 265 264 263 262 262 261 260 258 257 257 256 254 253 251 251 250 247 248 249 252 253 251 251 251 253 253 254
247 251 252 256 259 262 266 270 273 274 276 273 268 268 268 268 268 267 266 265 264 263 262 259 258 257 255 255 253 252 250 250 248 247 249 252 255 248 251 251 252 254 256
245 249 253 257 262 265 269 272 274 277 278 277 274 271 271 272 271 270 269 268 266 264 263 261 259 257 256 255 254 253 251 249 250 248 248 253 254 253 253 252 252 254 255
244 249 254 259 266 270 273 276 278 280 281 280 278 278 275 275 275 273 271 269 267 265 264 262 260 258 256 256 255 254 252 251 251 249 248 251 251 252 255 253 254 255 255
248 254 260 265 270 272 277 279 281 282 282 282 282 282 281 279 277 276 274 272 270 268 265 263 261 259 257 256 255 253 252 252 251 250 249 250 251 253 255 256 254 254 255
254 260 266 269 272 275 279 280 282 283 283 282 283 283 282 282 280 279 277 275 273 271 268 265 263 261 259 257 255 253 252 251 251 251 250 251 252 254 253 255 254 257 256
257 263 268 272 276 279 281 282 284 284 284 284 284 283 282 282 280 279 277 276 274 272 270 268 266 263 261 258 256 254 253 251 251 251 251 251 252 252 253 254 253 257 257
263 267 271 275 279 282 284 284 285 285 286 286 285 284 284 282 280 279 279 277 276 274 272 270 267 265 263 260 258 256 254 252 250 250 250 251 252 252 252 252 253 256 258
268 273 275 278 282 284 286 287 287 288 288 287 285 285 284 283 281 281 280 279 278 277 275 272 270 267 265 262 259 257 255 252 251 250 250 251 251 251 252 252 253 252 255
273 276 280 283 285 286 288 289 289 289 289 288 288 286 284 283 281 281 282 281 281 279 277 275 272 269 266 263 261 257 255 251 250 249 249 250 249 250 250 251 251 251 252
276 280 283 286 287 289 290 290 290 290 290 290 289 287 285 284 282 282 283 284 283 283 282 280 276 272 268 265 260 258 255 252 250 249 248 248 248 249 249 250 250 249 248
279 283 286 287 288 289 290 291 291 292 292 291 290 288 287 286 285 286 286 286 286 287 286 282 279 275 270 265 261 256 254 251 249 249 244 247 247 247 247 245 244 245 246
282 284 286 288 289 291 292 293 293 294 293 293 290 288 287 287 287 288 289 290 290 289 289 285 282 277 271 265 257 254 251 247 242 245 242 241 239 236 236 233 238 243 242
281 284 287 289 291 292 293 293 294 294 294 292 289 287 287 288 289 290 291 291 291 292 290 285 282 284 276 264 255 246 239 238 235 231 231 231 235 235 238 245 238 240 239
283 286 289 291 293 294 294 294 294 294 293 289 288 287 287 288 289 289 291 292 292 289 294 288 287 292 285 269 257 247 237 230 230 232 230 235 236 240 239 235 235 230 226
283 287 290 293 294 295 294 293 294 293 292 290 288 287 286 285 287 288 288 283 283 287 295 294 294 301 301 282 266 234 229 225 227 228 230 231 232 233 229 226 223 224 227
283 287 290 292 295 295 295 294 294 293 290 289 288 284 283 282 281 278 273 272 274 283 286 288 293 295 298 297 278 232 223 223 221 220 223 223 218 216 218 218 217 218 221
284 286 289 292 294 297 298 295 294 291 288 287 284 278 275 270 263 257 258 263 272 280 285 287 291 297 292 277 264 238 215 209 212 213 214 211 213 214 216 218 219 221 225
283 285 289 291 294 298 300 296 293 290 285 283 274 261 258 250 243 242 247 259 268 270 281 289 292 297 295 284 274 250 230 222 219 218 219 222 224 223 224 225 226 228 229
283 285 288 290 293 297 299 298 294 285 277 271 258 253 247 238 231 235 246 253 268 269 278 291 296 295 293 286 275 263 251 240 234 232 232 231 226 226 227 229 228 228 227
282 284 286 287 290 292 296 299 294 283 267 259 252 244 237 230 228 234 245 256 264 271 280 286 297 300 293 285 276 266 259 250 247 242 239 234 232 231 230 232 226 226 231
284 285 285 285 286 286 289 294 296 285 257 253 244 234 230 229 229 236 244 252 262 271 280 286 290 300 295 286 272 263 256 251 248 244 237 231 231 231 233 230 229 233 237
284 284 285 284 283 282 281 284 286 279 263 245 238 233 230 231 235 240 245 251 261 267 278 283 289 293 291 282 273 261 252 247 242 235 234 233 234 235 232 232 234 238 241
285 284 283 282 281 280 276 274 275 269 261 246 235 229 230 232 234 239 244 253 261 268 277 282 288 293 285 271 264 256 247 245 233 230 233 233 234 236 236 237 240 241 241
284 283 283 282 280 278 274 269 266 258 254 248 233 228 229 231 235 241 245 252 261 270 278 283 286 291 280 261 253 249 240 232 221 226 231 234 234 232 230 231 231 230 230